Location: Drocourt
(49.0571°N, 1.7669°E)
Time: 22:25:24
(UTC+00:00)

Cosmos 44 Rocket - Pass Details

Date: 09 February 2023
Orbit: 646 x 742 km, 65.1° (Epoch: 01 April)

Event Time Altitude Azimuth Distance (km) Brightness Sun altitude
Rises 18:48:33 0° 237° (WSW) 2,965 7.6 -17.7°
Reaches altitude 10° 18:50:54 10° 244° (WSW) 2,067 6.7 -18.1°
Maximum altitude 18:55:24 44° 317° (NW) 919 4.2 -18.8°
Enters shadow 18:59:07 15° 26° (NNE) 1,804 5.2 -19.4°
